Location: Allos
(44.2333°N, 6.6333°E)
Time: 12:39:42
(UTC+00:00)

Meteor 1-4 Rocket - Pass Details

Date: 01 December 2020
Orbit: 449 x 500 km, 81.2° (Epoch: 25 January)

Event Time Altitude Azimuth Distance (km) Brightness Sun altitude
Rises 17:28:18 0° 198° (SSW) 2,523 6.7 -16.1°
Reaches altitude 10° 17:30:26 10° 203° (SSW) 1,640 5.8 -16.4°
Maximum altitude 17:33:57 55° 282° (WNW) 572 3.2 -17.0°
Drops below altitude 10° 17:37:27 10° 1° (N) 1,625 5.1 -17.7°
Enters shadow 17:37:42 - 2° (N) 1,728 5.2 -17.7°
